{"data":{"norad_id":47907,"epoch":"2026-05-25T02:05:09.013632Z","epoch_age_seconds":74741,"freshness":"FRESH","line1":"1 47907U 21021AZ  26145.08690988  .00002398  00000+0  88992-4 0  9990","line2":"2 47907  53.1570 285.7914 0001163  80.2297 279.8836 15.31708120287722","mean_motion":15.3170812,"eccentricity":0.0001163,"inclination_deg":53.157,"raan_deg":285.7914,"arg_perigee_deg":80.2297,"mean_anomaly_deg":279.8836,"bstar":8.8992e-5,"rev_number":28772,"period_min":94.012689571692,"perigee_km":469.91926845563,"apogee_km":471.51231161459,"semimajor_km":6848.8527900351,"source":"CELESTRAK","updated_at":"2026-05-25T13:38:16.636879Z"}}